• Join FlightAware (Why Join?)
  • Login
  • US Flag GB Flag 
15:13 EST


 

Airport Tracker/Info


-or-


 

Live Flight TrackerFlight Track Log ✈ DAL1562 ✈ 14-Apr-2013 ✈ KDTW - KPHL

Flight Track Log - Related Links

Times and Time Zones

All times are in EDT time to prevent confusion due to time zone crossing. See the DAL1562 flight status page for this flight to view local times or setup timezone preferences in your user account.

Time Position Orientation Groundspeed Altitude Reporting Facility
EDT Latitude Longitude Course Direction KTS MPH feet Rate Location/Type
14:11 42.1994 -83.3581 181° South 166 191 1,500  Level Cleveland Center
14:12 42.1800 -83.3583 181° South 208 239 2,100 1,800 Climbing FAA TRACON SMA TRACON (SMA)
14:12 42.1550 -83.3586 180° South 243 280 3,000 3,000 Climbing FAA TRACON SMA TRACON (SMA)
14:12 42.1333 -83.3581 179° South 253 291 4,100 3,600 Climbing FAA TRACON SMA TRACON (SMA)
14:13 42.1125 -83.3553 174° South 255 293 5,400 4,050 Climbing FAA TRACON SMA TRACON (SMA)
14:13 42.0892 -83.3322 144° Southeast 279 321 6,800 3,692 Climbing FAA TRACON SMA TRACON (SMA)
14:13 42.0797 -83.3053 115° Southeast 308 354 7,800 2,933 Climbing Cleveland Center
14:14 42.0686 -83.2489 105° East 328 377 9,000 1,535 Climbing Cleveland Center
14:15 42.0900 -83.1378 75° East 339 390 10,000 1,300 Climbing Cleveland Center
14:16 42.1200 -82.9964 74° East 365 420 11,600 2,300 Climbing Cleveland Center
14:17 42.1483 -82.8406 76° East 398 458 14,600 2,850 Climbing Cleveland Center
14:18 42.1783 -82.6817 76° East 420 483 17,300 2,600 Climbing Cleveland Center
14:19 42.2083 -82.5203 76° East 435 501 19,800 2,200 Climbing Cleveland Center
14:20 42.2175 -82.3467 86° East 445 512 21,700 1,850 Climbing Cleveland Center
14:21 42.2033 -82.1697 96° East 457 526 23,500 1,650 Climbing Cleveland Center
14:22 42.1869 -81.9731 96° East 480 552 25,000 750 Climbing Cleveland Center
14:23 42.1053 -81.8286 127° Southeast 459 528 25,000  Level Cleveland Center
14:24 41.9981 -81.7147 142° Southeast 465 535 25,000  Level Cleveland Center
14:25 41.8972 -81.5986 139° Southeast 476 548 25,000  Level Cleveland Center
14:26 41.7958 -81.4828 140° Southeast 484 557 25,000  Level Cleveland Center
14:27 41.6947 -81.3644 139° Southeast 484 557 25,000  Level Cleveland Center
14:28 41.5892 -81.2467 140° Southeast 484 557 25,000  Level Cleveland Center
14:29 41.5000 -81.1403 138° Southeast 484 557 25,000  Level Cleveland Center
14:30 41.4067 -81.0122 134° Southeast 479 551 25,000  Level Cleveland Center
14:31 41.3133 -80.8817 134° Southeast 479 551 25,000  Level Cleveland Center
14:32 41.2219 -80.7542 134° Southeast 479 551 25,000  Level Cleveland Center
14:33 41.1200 -80.6106 133° Southeast 479 551 25,000  Level Cleveland Center
14:34 41.0281 -80.4842 134° Southeast 479 551 25,000  Level Cleveland Center
14:35 40.9361 -80.3606 135° Southeast 479 551 25,000  Level Cleveland Center
14:36 40.8506 -80.2483 135° Southeast 479 551 25,000  Level Cleveland Center
14:37 40.7811 -80.0950 121° Southeast 479 551 25,000  Level Cleveland Center
14:38 40.7242 -79.9367 115° Southeast 479 551 25,000  Level Cleveland Center
14:39 40.6689 -79.7783 115° Southeast 474 545 25,000  Level Cleveland Center
14:40 40.6114 -79.6150 115° Southeast 474 545 25,000  Level Cleveland Center
14:41 40.5536 -79.4572 116° Southeast 474 545 25,000  Level Cleveland Center
14:42 40.4936 -79.2972 116° Southeast 479 551 25,000  Level Cleveland Center
14:43 40.4225 -79.1214 118° Southeast 492 566 25,000  Level Cleveland Center
14:44 40.3642 -78.9617 116° Southeast 492 566 25,000  Level Cleveland Center
14:45 40.3200 -78.7939 109° East 487 560 25,000  Level Cleveland Center
14:46 40.3169 -78.6169 91° East 469 540 25,000  Level Cleveland Center
14:48 40.3158 -78.2603 90° East 489 563 25,000  Level New York Center
14:49 40.3125 -78.0803 91° East 494 568 25,000  Level New York Center
14:50 40.3131 -77.9006 90° East 494 568 25,000 -151 Level New York Center
14:51 40.3111 -77.7206 91° East 499 574 24,700 -750 Descending New York Center
14:52 40.3089 -77.5461 91° East 493 567 23,500 -1,131 Descending New York Center
14:53 40.3064 -77.3661 91° East 493 567 22,400 -1,068 Descending New York Center
14:54 40.3033 -77.1944 91° East 483 556 21,400 -900 Descending New York Center
14:55 40.2917 -77.0244 95° East 478 550 20,600 -793 Descending New York Center
14:56 40.2564 -76.8633 106° East 467 537 19,800 -950 Descending New York Center
14:57 40.2186 -76.7053 107° East 462 532 18,700 -893 Descending New York Center
14:58 40.1806 -76.5469 107° East 452 520 18,000 -661 Descending New York Center
14:59 40.1475 -76.4083 107° East 447 514 17,400 -789 Descending New York Center
14:59 40.1356 -76.3528 106° East 445 512 17,000 -1,737 Descending FAA TRACON SMA TRACON (SMA)
15:00 40.1244 -76.3047 107° East 442 509 16,300 -2,550 Descending FAA TRACON SMA TRACON (SMA)
15:00 40.1178 -76.2450 98° East 434 499 15,300 -3,150 Descending FAA TRACON SMA TRACON (SMA)
15:00 40.1153 -76.1953 94° East 434 499 14,200 -3,538 Descending FAA TRACON SMA TRACON (SMA)
15:00 40.1103 -76.1481 98° East 438 504 13,000 -3,846 Descending FAA TRACON SMA TRACON (SMA)
15:01 40.1078 -76.0881 93° East 441 507 11,700 -3,000 Descending FAA TRACON SMA TRACON (SMA)
15:01 40.1033 -76.0392 97° East 432 497 11,000 -1,950 Descending FAA TRACON SMA TRACON (SMA)
15:01 40.1003 -75.9961 95° East 386 444 10,400 -1,650 Descending FAA TRACON SMA TRACON (SMA)
15:02 40.0969 -75.9431 95° East 388 447 9,900 -1,317 Descending FAA TRACON SMA TRACON (SMA)
15:02 40.0931 -75.9036 97° East 359 413 9,500 -1,200 Descending FAA TRACON SMA TRACON (SMA)
15:02 40.0906 -75.8653 95° East 349 402 9,100 -1,538 Descending FAA TRACON SMA TRACON (SMA)
15:03 40.0869 -75.8183 96° East 341 392 8,500 -1,500 Descending FAA TRACON SMA TRACON (SMA)
15:03 40.0839 -75.7817 96° East 335 386 8,100 -800 Descending FAA TRACON SMA TRACON (SMA)
15:04 40.0789 -75.7003 95° East 329 379 7,700 -700 Descending FAA TRACON SMA TRACON (SMA)
15:04 40.0778 -75.6636 92° East 329 379 7,400 -900 Descending FAA TRACON SMA TRACON (SMA)
15:04 40.0778 -75.6272 90° East 329 379 7,100 -450 Descending FAA TRACON SMA TRACON (SMA)
15:05 40.0744 -75.5817 95° East 325 374 7,100  Level FAA TRACON SMA TRACON (SMA)
15:05 40.0728 -75.5475 94° East 326 375 7,100  Level FAA TRACON SMA TRACON (SMA)
15:05 40.0703 -75.5106 95° East 324 373 7,100  Level FAA TRACON SMA TRACON (SMA)
15:06 40.0683 -75.4633 93° East 328 377 7,100  Level FAA TRACON SMA TRACON (SMA)
15:06 40.0667 -75.4289 94° East 326 375 7,100  Level FAA TRACON SMA TRACON (SMA)
15:06 40.0653 -75.3900 93° East 326 375 7,100 -150 Level FAA TRACON SMA TRACON (SMA)
15:07 40.0631 -75.3542 95° East 326 375 7,000  Descending FAA TRACON SMA TRACON (SMA)
15:07 40.0614 -75.3083 93° East 327 376 7,100  Climbing FAA TRACON SMA TRACON (SMA)
15:07 40.0600 -75.2728 93° East 326 375 7,000 -450 Descending FAA TRACON SMA TRACON (SMA)
15:08 40.0564 -75.2350 97° East 345 397 6,800 -900 Descending FAA TRACON SMA TRACON (SMA)
15:08 40.0358 -75.1981 126° Southeast 325 374 6,400 -750 Descending FAA TRACON SMA TRACON (SMA)
15:08 40.0153 -75.1767 141° Southeast 315 362 6,300 -150 Descending FAA TRACON SMA TRACON (SMA)
15:09 40.0008 -75.1497 125° Southeast 282 325 6,300 -150 Level FAA TRACON SMA TRACON (SMA)
15:09 39.9983 -75.1147 95° East 242 278 6,200 -600 Descending FAA TRACON SMA TRACON (SMA)
15:09 39.9997 -75.0906 86° East 229 264 5,900 -900 Descending FAA TRACON SMA TRACON (SMA)
15:10 40.0006 -75.0650 88° East 220 253 5,600 -900 Descending FAA TRACON SMA TRACON (SMA)
15:10 40.0019 -75.0381 86° East 203 234 5,300 -1,050 Descending FAA TRACON SMA TRACON (SMA)
15:10 39.9950 -75.0172 114° Southeast 189 217 4,900 -1,200 Descending FAA TRACON SMA TRACON (SMA)
15:11 39.9792 -75.0078 155° Southeast 196 226 4,500 -1,200 Descending FAA TRACON SMA TRACON (SMA)
15:11 39.9600 -74.9994 162° South 197 227 4,100 -1,171 Descending FAA TRACON SMA TRACON (SMA)
15:12 39.9442 -75.0028 189° South 186 214 3,700 -1,350 Descending FAA TRACON SMA TRACON (SMA)
15:12 39.9350 -75.0175 231° Southwest 166 191 3,200 -1,538 Descending FAA TRACON SMA TRACON (SMA)
15:12 39.9247 -75.0364 235° Southwest 167 192 2,700 -1,500 Descending FAA TRACON SMA TRACON (SMA)
15:12 39.9161 -75.0519 234° Southwest 168 193 2,200 -750 Descending FAA TRACON SMA TRACON (SMA)
15:13 39.9097 -75.0686 243° Southwest 168 193 2,200 -150 Level FAA TRACON SMA TRACON (SMA)
15:13 39.9025 -75.0911 247° West 176 203 2,100 -600 Descending FAA TRACON SMA TRACON (SMA)
15:13 39.8972 -75.1078 248° West 177 204 1,800 -900 Descending FAA TRACON SMA TRACON (SMA)
15:14 39.8939 -75.1264 257° West 168 193 1,500 -1,050 Descending FAA TRACON SMA TRACON (SMA)
15:14 39.8906 -75.1475 258° West 155 178 1,100 -900 Descending FAA TRACON SMA TRACON (SMA)
15:14 39.8869 -75.1633 253° West 151 174 900 -600 Descending FAA TRACON SMA TRACON (SMA)
15:15 39.8839 -75.1792 256° West 148 170 700 -750 Descending FAA TRACON SMA TRACON (SMA)
15:15 39.8800 -75.1956 253° West 147 169 400 -750 Descending FAA TRACON SMA TRACON (SMA)
15:15 39.8772 -75.2139 259° West 145 167 200 -300 Descending FAA TRACON SMA TRACON (SMA)
15:16 39.8764 -75.2178 254° West 145 167 200  Level FAA TRACON SMA TRACON (SMA)